Home   Weather   Khushab   Past weeks

Flag for Pakistan Past Weather in Khushab, Pakistan — Yesterday and Last 2 Weeks

Now
91 °F

Hot.


Feels Like: 105 °F
Forecast: 86 / 101 °F
Wind: 12 mph from South

Location: Islamabad Airport

Current Time: Jul 26, 2017 at 5:48:55 pm

Latest Report: Jul 26, 2017 at 4:30 pm


Visibility: 4 mi

Pressure: 29.59 "Hg

Humidity: 63%

Dew Point: 77 °F

Location of KhushabLocation

Past Weather in Khushab — Graph

°F

Khushab Temperature Yesterday

Maximum temperature yesterday: 95 °F (at 2:00 pm)
Minimum temperature yesterday: 79 °F (at 3:00 am)
Average temperature yesterday: 85 °F

High & Low Weather Summary for the Past Weeks

 TemperatureHumidityPressure
High99 °F (Jul 20, 1:00 pm)100% (Jul 13, 6:30 am)29.74 "Hg (Jul 13, 6:30 am)
Low70 °F (Jul 13, 6:30 am)44% (Jul 20, 3:00 pm)29.45 "Hg (Jul 22, 7:00 pm)
Average86 °F70%29.60 "Hg
* Reported Jul 11 5:00 pm — Jul 26 4:30 pm, Khushab. Weather by CustomWeather, © 2017

Note: Actual official high and low records may vary slightly from our data, if they occured in-between our weather recording intervals... More about our weather records

Advertising

Khushab Weather History for the Previous 24 Hours

Scroll right to see more
 ConditionsComfort  
Time TempWeatherWind HumidityBarometerVisibility
4:30 pm
Wed, Jul 26
91 °FHot.12 mph63%29.59 "Hg4 mi
3:00 pm95 °FScattered clouds.12 mph60%N/A2 mi
2:00 pm88 °FScattered clouds.12 mph75%29.65 "Hg4 mi
1:30 pm86 °FScattered clouds.14 mph75%29.65 "Hg4 mi
1:00 pm86 °FScattered clouds.14 mph75%29.65 "Hg4 mi
12:30 pm84 °FBroken clouds.9 mph79%29.68 "Hg4 mi
12:00 pm84 °FBroken clouds.14 mph79%29.68 "Hg4 mi
11:30 am82 °FBroken clouds.14 mph79%29.68 "Hg4 mi
11:00 am82 °FBroken clouds.14 mph79%29.68 "Hg4 mi
9:30 am77 °FFog.12 mph89%29.65 "Hg2 mi
9:00 am77 °FLight rain. Broken clouds.12 mph89%29.65 "Hg2 mi
7:30 am75 °FThunderstorms. Broken clouds.16 mph83%29.65 "Hg2 mi
7:00 am75 °FThunderstorms. Broken clouds.35 mph83%29.62 "Hg2 mi
6:00 am79 °FThunderstorms. Broken clouds.14 mph84%29.62 "Hg3 mi
5:30 am79 °FThunderstorms. Broken clouds.14 mph89%29.62 "Hg3 mi
5:00 am81 °FPartly cloudy.14 mph84%29.62 "Hg3 mi
4:30 am81 °FThundershowers. Partly cloudy.14 mph84%29.62 "Hg3 mi
3:00 am82 °FThundershowers. Partly cloudy.16 mph79%29.59 "Hg3 mi
2:30 am84 °FThunderstorms. Partly cloudy.16 mph79%29.59 "Hg3 mi
2:00 am84 °FThunderstorms. Partly cloudy.16 mph79%29.59 "Hg3 mi
1:30 am84 °FThunderstorms. Partly cloudy.14 mph79%29.56 "Hg3 mi
1:00 am84 °FThunderstorms. Partly cloudy.14 mph79%29.56 "Hg3 mi
12:15 am84 °FThunderstorms. Partly cloudy.7 mph79%29.59 "Hg3 mi
11:45 pm
Tue, Jul 25
84 °FThundershowers. Passing clouds.7 mph79%29.59 "Hg3 mi
11:00 pm84 °FHaze.7 mph79%29.59 "Hg3 mi
10:30 pm84 °FHaze.12 mph79%29.59 "Hg3 mi
10:00 pm84 °FHaze.12 mph79%29.59 "Hg3 mi
9:00 pm86 °FHaze.12 mph75%29.56 "Hg3 mi
8:00 pm86 °FPassing clouds.7 mph75%29.53 "Hg3 mi
7:30 pm88 °FPassing clouds.12 mph66%29.50 "Hg3 mi
7:00 pm88 °FScattered clouds.12 mph66%29.50 "Hg3 mi
6:30 pm90 °FScattered clouds.12 mph63%29.50 "Hg3 mi
6:00 pm90 °FThunderstorms. Broken clouds.12 mph63%29.50 "Hg3 mi
Weather by CustomWeather, © 2017

See weather overviewHow to use our weather pages